Barstow Daggett Airport
KDAG : now visible

Airfield :











YOU CAN JOIN US ON...

 
LOGIN :

Register | Disclaimer

   EN    FR    IT 

 









Legend :    VFR   Marginal VFR   IFR   Intensive IFR   Very Intensive IFR
Visi :
Ceiling :
>= 8 km
>= 3000ft
5 to 8 km
1000 to 3000 ft
1500m to 5 km
500 to 1000 ft
800 to 1500m
200 to 500 ft
< 800m
< 200 ft
Symbols :   Thunderstorms  Fog  Heavy snow  Heavy precipitations  Wind > 20 kt






- Airport Elevation : 1930 ft


KDAG - Barstow Daggett

CURRENT METAR :
  • 220250Z AUTO 22005KT 10SM CLR 13/00 A2997 RMK AO2 SLP142 T01330000 53001

EXPIRED METARs :
  • 220150Z AUTO 18004KT 10SM CLR 14/00 A2997 RMK AO2 SLP142 T01390000
  • 220050Z AUTO 33005KT 10SM CLR 18/01 A2996 RMK AO2 SLP136 T01780011

TAF KDAG
Valid from the 22 at 00:00 until the 23 at 00:00 UTC


212320Z 2200/2224 27008KT P6SM FEW060
FM220200 25011KT P6SM FEW250
FM222000 25020G34KT P6SM SCT250
KZLA FIR / North America



MET'MAP, your aeronautical weather chart ! - Copyright ORBIFLY December 2007 - Disclaimer

ORBIFLY MET'MAP TEAM :

Programming & Development : Alexandra Zaïnal
Concept & original design : Baudouin d'Aumeries
Assistance for programming : Marc-Olivier Méhu
Technical & hardware support : Manuel Goepfert

Contact : metmap@orbifly.com




SOURCES & CREDITS :

   NOAA       Earth
Advisory